[[{"header":{"parameterUnit":"m.s-1","parameterCategory":1,"la1":30.2991,"la2":30.254,"lo1":-89.0895,"lo2":-89.0444,"dy":0.0017,"dx":0.0017,"nx":28,"ny":28,"refTime":"2023-08-19T03:00:00:Z","depth":0,"parameterNumber":2,"parameterNumberName":"U-component_of_WINDS"},"data":[0,0,0,0,0,0,0,0,0,0,0,0,0,0,0,0,0,0,0,0,0,0,0,0,0,0,0,0,0,0,0,0,0,0,0,0,0,0,0,0,0,0,0,0,0,0,0,0,0,0,0,0,0,0,0,0,0,0,0.2767,0.2767,0,0.2764,0.2764,0.2764,0.2754,0.2753,0.2753,0.2753,0.275,0.275,0.275,0,0,0,0,0,0,0,0,0,0,0,0,0,0.2763,0.2763,0.2767,0.2767,0.2767,0.2764,0.2764,0.2764,0.2754,0.2753,0.2753,0.2753,0.2749,0.275,0.275,0,0,0,0,0,0,0,0,0,0,0,0,0,0.2763,0.2763,0.2767,0.2761,0.2761,0.2764,0.2764,0.2764,0.2754,0.2753,0.2753,0.2753,0.2749,0.275,0.275,0.2758,0,0,0.275,0.275,0,0,0,0,0,0,0,0,0.2763,0.2763,0.2762,0.2762,0.2761,0.2759,0.2761,0.2762,0.2754,0.2756,0.2753,0.2752,0.2753,0.2753,0.2753,0.2758,0.2758,0.275,0.2751,0.2751,0.2751,0,0,0,0,0,0,0,0.2763,0.2763,0.2766,0.2762,0.2762,0.2759,0.2758,0.2761,0.2757,0.2756,0.2755,0.2755,0.2752,0.2753,0.2753,0.2758,0.275,0.2751,0.2751,0.2751,0.2769,0.2769,0,0,0,0,0,0,0.2764,0.2763,0.2766,0.2766,0.2761,0.2759,0.2759,0.276,0.2757,0.2756,0.2755,0.2755,0.2753,0.2753,0.2753,0.2761,0.2751,0.2751,0.2751,0.2768,0.2769,0.2769,0,0,0,0,0,0,0.2764,0.2764,0.2766,0.2764,0.2764,0.276,0.2761,0.276,0.276,0.2756,0.2755,0.2757,0.2752,0.2752,0.2757,0.2761,0.2751,0.2751,0.2768,0.2768,0.2769,0.2779,0,0,0,0,0,0,0.2763,0.2764,0.2767,0.2764,0.2764,0.277,0.2761,0.276,0.2761,0.276,0.2757,0.2756,0.2752,0.2756,0.2757,0.2761,0.2751,0.2767,0.2768,0.2769,0.2779,0.278,0.2782,0,0,0,0,0,0.2763,0.2771,0.2768,0.2768,0.2768,0.2771,0.277,0.2766,0.2761,0.2764,0.2761,0.2756,0.2761,0.2757,0.2757,0.2762,0.2767,0.2768,0.2769,0.2778,0.278,0.2782,0,0,0,0,0,0,0.2774,0.277,0.2767,0.2773,0.2772,0.2769,0.2772,0.2768,0.2768,0.2767,0.2762,0.2761,0.2766,0.2764,0.276,0.2769,0.2763,0.2764,0.277,0.2772,0.2773,0.2773,0.2751,0,0,0,0,0,0.2777,0.278,0.2776,0.2782,0.2782,0.2777,0.2778,0.2774,0.2773,0.2773,0.277,0.2769,0.277,0.2771,0.2772,0.2779,0.2777,0.2782,0.2783,0.2785,0.2785,0.2788,0.279,0.2772,0.2772,0.2772,0,0,0.2784,0.2782,0.2784,0.2784,0.2783,0.2785,0.2777,0.278,0.2781,0.2773,0.2777,0.2775,0.2773,0.2779,0.2781,0.2778,0.279,0.2786,0.2787,0.2787,0.2789,0.2791,0.2792,0.2772,0.2772,0.2772,0,0,0.2796,0.2796,0.28,0.2799,0.2797,0.2794,0.2796,0.2793,0.2791,0.2795,0.2789,0.279,0.2792,0.2791,0.2791,0.2803,0.2798,0.2803,0.2811,0.2814,0.2815,0.2816,0.282,0.2821,0.2804,0.2804,0.2804,0,0.2804,0.2808,0.2803,0.2806,0.2806,0.2799,0.2803,0.2802,0.2801,0.2801,0.2798,0.28,0.2798,0.2803,0.2806,0.2806,0.2807,0.2803,0.2815,0.2817,0.2818,0.2821,0.2822,0.2805,0.2805,0.2805,0.2805,0,0.2817,0.282,0.2823,0.2822,0.2823,0.2826,0.2822,0.2823,0.2819,0.2817,0.282,0.2818,0.2818,0.2819,0.2816,0.2823,0.2821,0.2816,0.281,0.282,0.2823,0.2824,0.2806,0.2806,0.2805,0.2805,0,0,0.2836,0.2832,0.2834,0.2833,0.283,0.2832,0.2835,0.2835,0.2836,0.2835,0.2837,0.2839,0.2835,0.2835,0.2831,0.2834,0.2842,0.2829,0.2829,0.2831,0.2849,0.2852,0.2854,0.2839,0.284,0.284,0.2849,0,0.2847,0.2853,0.2848,0.2854,0.2856,0.2849,0.2852,0.285,0.2848,0.2849,0.2846,0.2847,0.2842,0.2842,0.2844,0.2841,0.2846,0.284,0.2841,0.2841,0.284,0.2855,0.2858,0.2868,0.2851,0.2851,0.2851,0,0.2861,0.2861,0.2867,0.2864,0.2864,0.2867,0.2866,0.2867,0.2866,0.2864,0.2863,0.2859,0.2861,0.2855,0.2858,0.2855,0.2855,0.2853,0.2853,0.2853,0.2846,0.2854,0.287,0.2872,0.2853,0.2853,0.2852,0,0.2873,0.2875,0.2878,0.2878,0.2875,0.2876,0.2875,0.2873,0.2873,0.2873,0.2872,0.2872,0.2872,0.2872,0.2867,0.2864,0.2871,0.2865,0.2869,0.2869,0.287,0.287,0.2885,0.2871,0.2871,0.2871,0.2871,0,0.2886,0.289,0.2884,0.2886,0.2889,0.2884,0.2888,0.2886,0.2884,0.2886,0.288,0.2882,0.2876,0.2877,0.2873,0.2876,0.2876,0.2874,0.2873,0.2874,0.2874,0.2874,0.2873,0.2871,0.2871,0.2871,0.2871,0,0.29,0.2896,0.2899,0.2896,0.2895,0.2898,0.2895,0.2896,0.2894,0.2895,0.2895,0.2891,0.2892,0.2887,0.2887,0.2885,0.2889,0.2887,0.2889,0.2888,0.2892,0.2892,0.2907,0.2909,0.2894,0.2895,0.2895,0,0.2908,0.291,0.2907,0.2908,0.2906,0.2907,0.2907,0.2903,0.2903,0.2901,0.2903,0.2903,0.2902,0.2903,0.29,0.29,0.2897,0.2903,0.2897,0.2898,0.2896,0.2896,0.2896,0.2904,0.2904,0.2904,0.2904,0,0.2922,0.292,0.292,0.2919,0.292,0.2919,0.2918,0.2919,0.2914,0.2914,0.2915,0.2914,0.2914,0.2914,0.2913,0.2911,0.2907,0.2906,0.2907,0.2908,0.2909,0.2907,0.2891,0.2906,0.2906,0.2905,0.2905,0.2905,0.2932,0.2934,0.2932,0.2932,0.2931,0.293,0.2931,0.2929,0.2929,0.2928,0.2926,0.2926,0.2924,0.2922,0.2921,0.2921,0.2919,0.292,0.292,0.292,0.2921,0.2909,0.2921,0.2921,0.2921,0.2921,0.2921,0,0.2945,0.2943,0.2944,0.2943,0.2943,0.2939,0.2938,0.2938,0.2939,0.2937,0.2937,0.2937,0.2937,0.2934,0.2933,0.2934,0.2932,0.2934,0.2934,0.2933,0.2924,0.2923,0.2936,0.2936,0.2936,0.2936,0.2936,0.2936,0.2952,0.2954,0.2952,0.2954,0.2952,0.2953,0.2952,0.2952,0.295,0.2951,0.2951,0.2948,0.2946,0.2945,0.2945,0.2944,0.2943,0.2946,0.2944,0.2935,0.2934,0.2932,0.2931,0.2946,0.2946,0.2954,0.2954,0.2954]},{"header":{"parameterUnit":"m.s-1","parameterCategory":1,"la1":30.2991,"la2":30.254,"lo1":-89.0895,"lo2":-89.0444,"dy":0.0017,"dx":0.0017,"nx":28,"ny":28,"refTime":"2023-08-19T03:00:00:Z","depth":0,"parameterNumber":3,"parameterNumberName":"V-component_of_WINDS"},"data":[0,0,0,0,0,0,0,0,0,0,0,0,0,0,0,0,0,0,0,0,0,0,0,0,0,0,0,0,0,0,0,0,0,0,0,0,0,0,0,0,0,0,0,0,0,0,0,0,0,0,0,0,0,0,0,0,0,0,3.6268,3.6268,0,3.6204,3.6204,3.6203,3.6093,3.6091,3.6089,3.6087,3.6023,3.6023,3.6024,0,0,0,0,0,0,0,0,0,0,0,0,0,3.6298,3.6298,3.6268,3.6268,3.6267,3.6205,3.6204,3.6203,3.6094,3.6091,3.6089,3.6086,3.6023,3.6023,3.6024,0,0,0,0,0,0,0,0,0,0,0,0,0,3.6265,3.6298,3.6269,3.6205,3.6199,3.6205,3.6204,3.6203,3.6094,3.6091,3.6088,3.6085,3.6023,3.6023,3.6024,3.6087,0,0,3.6025,3.6025,0,0,0,0,0,0,0,0,3.6267,3.6264,3.6215,3.6209,3.6202,3.6154,3.619,3.6164,3.6095,3.6134,3.6087,3.6084,3.6069,3.6066,3.606,3.6084,3.6082,3.6025,3.6025,3.6025,3.6025,0,0,0,0,0,0,0,3.6269,3.6266,3.6243,3.6215,3.6207,3.618,3.6172,3.6185,3.612,3.613,3.6122,3.6116,3.6065,3.606,3.6058,3.6081,3.6025,3.6025,3.6025,3.6025,3.6153,3.6156,0,0,0,0,0,0,3.6281,3.6268,3.6245,3.6241,3.6227,3.6182,3.6173,3.6172,3.6119,3.6108,3.6119,3.6111,3.6061,3.6058,3.6055,3.6125,3.6025,3.6025,3.6025,3.615,3.6154,3.6157,0,0,0,0,0,0,3.6282,3.6279,3.6248,3.6253,3.6246,3.6185,3.6185,3.6173,3.6168,3.611,3.6098,3.6126,3.6059,3.6055,3.608,3.6122,3.6025,3.6026,3.6146,3.6151,3.6155,3.6267,0,0,0,0,0,0,3.6283,3.6281,3.6304,3.6254,3.6247,3.6273,3.6188,3.6174,3.6168,3.6158,3.6114,3.6104,3.6056,3.608,3.608,3.612,3.6026,3.6142,3.6148,3.6154,3.6259,3.6275,3.6289,0,0,0,0,0,3.6284,3.6338,3.6305,3.6303,3.6274,3.6276,3.6272,3.6216,3.6172,3.6195,3.6158,3.6105,3.6118,3.6084,3.6083,3.6124,3.6139,3.6146,3.6153,3.6253,3.6272,3.6288,0,0,0,0,0,0,3.6395,3.633,3.6293,3.6333,3.6311,3.6257,3.6284,3.6238,3.6228,3.6219,3.615,3.6141,3.6175,3.6152,3.6115,3.6182,3.612,3.6127,3.6196,3.6214,3.6228,3.6232,3.6026,0,0,0,0,0,3.6424,3.643,3.6374,3.6414,3.6404,3.6347,3.6346,3.6304,3.6279,3.6269,3.6234,3.6212,3.621,3.6211,3.6207,3.6256,3.6245,3.6284,3.6299,3.6311,3.6318,3.6342,3.6358,3.6181,3.6181,3.6181,0,0,3.6484,3.6449,3.6457,3.6435,3.6413,3.6421,3.634,3.6352,3.6357,3.6271,3.6292,3.6266,3.6236,3.6274,3.6288,3.6256,3.6364,3.632,3.633,3.633,3.6351,3.6368,3.6383,3.6186,3.6185,3.6184,0,0,3.6596,3.6571,3.6601,3.6581,3.6549,3.651,3.6518,3.6472,3.6451,3.6471,3.6406,3.6412,3.6411,3.6393,3.6383,3.649,3.644,3.6491,3.6567,3.6591,3.6605,3.6617,3.6654,3.6668,3.6498,3.6498,3.6499,0,3.6675,3.6684,3.6623,3.6639,3.6631,3.6553,3.6583,3.6567,3.6536,3.6532,3.6496,3.6493,3.6468,3.65,3.6526,3.6521,3.6527,3.6495,3.6608,3.6619,3.6629,3.6664,3.6678,3.6505,3.6504,3.6503,3.6503,0,3.6782,3.6789,3.6818,3.6788,3.6784,3.6808,3.675,3.6753,3.6713,3.6678,3.67,3.6667,3.6654,3.6659,3.662,3.6685,3.6666,3.662,3.6556,3.6654,3.6685,3.6698,3.6514,3.6511,3.651,3.6508,0,0,3.6961,3.6898,3.6909,3.6895,3.6854,3.6859,3.6879,3.6866,3.687,3.6851,3.6866,3.6868,3.6825,3.6814,3.6772,3.6794,3.688,3.6745,3.6743,3.677,3.6949,3.6983,3.6999,3.6847,3.6849,3.6851,3.6951,0,3.7064,3.7094,3.704,3.7083,3.7089,3.7016,3.7033,3.701,3.6979,3.698,3.6945,3.6947,3.689,3.6884,3.6902,3.6866,3.6914,3.6858,3.686,3.686,3.6868,3.7016,3.7052,3.7148,3.6963,3.6965,3.6967,0,3.7188,3.7175,3.7219,3.7175,3.7175,3.7192,3.7176,3.7178,3.7151,3.7126,3.7115,3.7066,3.7082,3.7021,3.7043,3.7006,3.7004,3.6987,3.6989,3.6986,3.6919,3.7016,3.7177,3.7192,3.6985,3.6984,3.6983,0,3.7314,3.7307,3.7332,3.7322,3.7272,3.7285,3.7265,3.7234,3.723,3.7217,3.7213,3.7203,3.7196,3.7189,3.7138,3.7098,3.7166,3.7101,3.7146,3.7148,3.7163,3.7162,3.7325,3.7164,3.7163,3.7163,3.7163,0,3.7434,3.7463,3.7387,3.7403,3.7433,3.7372,3.7404,3.7376,3.735,3.7359,3.7295,3.7305,3.7237,3.724,3.72,3.7224,3.7222,3.7203,3.7192,3.7208,3.721,3.7205,3.7196,3.7167,3.7166,3.7165,3.7165,0,3.7578,3.7529,3.7551,3.7502,3.749,3.7515,3.7473,3.7485,3.745,3.7462,3.7461,3.7406,3.7406,3.7354,3.7344,3.7317,3.7357,3.7335,3.7367,3.7359,3.7406,3.7402,3.757,3.7589,3.7417,3.7419,3.742,0,3.7657,3.7678,3.7631,3.7632,3.7615,3.7618,3.7613,3.7554,3.7552,3.7523,3.7539,3.7533,3.7525,3.7528,3.7487,3.7478,3.7454,3.7514,3.7453,3.7468,3.7454,3.7453,3.7455,3.7526,3.7529,3.753,3.7532,0,3.7803,3.7778,3.7773,3.7761,3.7757,3.7745,3.7728,3.7733,3.7667,3.7669,3.7667,3.7661,3.765,3.7645,3.7629,3.7608,3.756,3.7552,3.7561,3.7578,3.7595,3.7585,3.7401,3.7548,3.7546,3.7545,3.7544,3.7543,3.7916,3.7931,3.7901,3.7898,3.7879,3.7865,3.7874,3.784,3.7838,3.7824,3.7789,3.7794,3.7766,3.7739,3.7723,3.7725,3.7695,3.771,3.7713,3.7718,3.7726,3.7596,3.7722,3.7722,3.7721,3.7721,3.7721,0,3.8058,3.8035,3.8033,3.8012,3.801,3.7964,3.7944,3.7945,3.795,3.7928,3.7921,3.792,3.7915,3.7874,3.7864,3.7874,3.7852,3.7874,3.7872,3.7868,3.7754,3.7746,3.7892,3.7892,3.7892,3.7892,3.7892,3.7892,3.8131,3.8154,3.8125,3.8138,3.8115,3.8118,3.811,3.8097,3.8079,3.808,3.8076,3.8049,3.802,3.8007,3.8001,3.7989,3.7988,3.8017,3.7998,3.7892,3.7876,3.786,3.7852,3.8018,3.8018,3.8111,3.8112,3.8113]}]]